SCP
-0 0 -0 -0 0 -0 -0 -0 -0 0 0 0 0 0 0 -0 -0 0 0 0 0 0 0 0 0 0 0 0 0 0 0 0 0 0 0 0 0 0 0 0 0 0 0 0 0 0 0 0 0 0 0 0 0 0
-0 -0 -0 0 -0 -0 -0 -0 -0 -0 0 0 0 -0 -0 0 0 0 0 0 0 0 0 0 0 0 0 0 0 0 0 0 0 0 0 0 0 0 0 0 0 0 0 0 0 0 0 0 0 0 0 0 0 0
-0 -0 -0 -0 -0 -0 -0 -0 -0 -0 -0 0 -0 0 0 0 0 0 0 0 0 0 0 0 0 0 0 0 0 0 0 0 0 0 0 0 0 0 0 0 0 0 0 0 0 0 0 0 0 0 0 0 0 0
-0 -0 -0 -0 -0 -0 -0 -0 -0 -0 -0 0 -0 -0 0 -0 0 0 0 0 0 0 0 0 0 0 0 0 0 0 0 0 0 0 0 0 0 0 0 0 0 0 0 0 0 0 0 0 0 0 0 0 0 0
-0 -0 -0 -0 -0 -0 -0 -0 -0 -0 -0 -0 -0 0 0 -0 -0 0 0 0 0 0 0 0 0 0 0 0 0 0 0 0 0 0 0 0 0 0 0 0 0 0 0 0 0 0 0 0 0 0 0 0 0 0
0 -0 -0 -0 -0 -0 -0 -0 -0 -0 -0 -0 -0 -0 0 -0 0 0 0 0 0 0 0 0 0 0 0 0 0 0 0 0 0 0 0 0 0 0 0 0 0 0 0 0 0 0 0 0 0 0 0 0 0 0
0 -0 -0 -0 -0 -0 -0 -0 -0 -0 -0 -0 -0 -0 -0 -0 0 0 0 0 0 0 0 0 0 0 0 0 0 0 0 0 0 0 0 0 0 0 0 0 0 0 0 0 0 0 0 0 0 0 0 0 0 0
0 -0 -0 -0 -0 -0 -0 -0 -0 0 0 0 0 0 0 -0 -0 0 0 -0 0 0 0 0 0 0 0 0 0 0 0 0 0 0 0 0 0 0 0 0 0 0 0 0 0 0 0 0 0 0 0 0 0 0
0 0 0 -0 -0 -0 -0 -0 -0 0 0 0 0 0 0 0 0 0 0 0 0 0 0 0 0 0 0 0 0 0 0 0 0 0 0 0 0 0 0 0 0 0 0 0 0 0 0 0 0 0 0 0 0 0
0 0 0 0 -0 -0 -0 -0 0 0 0 0 0 0 0 0 0 0 0 0 0 0 0 0 0 0 0 0 0 0 0 0 0 0 0 0 0 0 0 0 0 0 0 0 0 0 0 0 0 0 0 0 0 0
0 0 0 0 0 -0 -0 -0 -0 0 0 0 0 0 0 0 0 0 0 0 0 0 0 0 0 0 0 0 0 0 0 0 0 0 0 0 0 0 0 0 0 0 0 0 0 0 0 0 0 0 0 0 0 -0
0 0 0 0 0 0 -0 0 -0 0 0 0 0 0 0 0 0 0 0 0 0 0 0 0 0 0 0 0 0 0 0 0 0 0 0 0 0 0 0 0 0 0 0 0 0 0 0 0 0 0 0 0 0 0
0 0 0 0 0 0 0 0 0 0 0 0 0 0 0 0 0 0 0 0 0 0 0 0 0 0 0 0 0 0 0 0 0 0 0 0 0 0 0 0 0 0 0 0 0 0 0 0 0 0 0 0 0 0
0 0 0 0 0 0 0 0 -0 -0 -0 -0 -0 -0 0 0 0 0 0 0 0 0 0 0 0 0 0 0 0 0 0 0 0 0 0 0 0 0 0 0 0 0 0 0 0 0 0 0 0 0 0 0 0 0
0 0 0 0 -0 0 0 0 -0 -0 -0 -0 -0 -0 -0 0 0 0 0 0 0 0 0 0 0 0 0 0 0 0 0 0 0 0 0 0 0 0 0 0 0 0 0 0 0 0 0 0 0 0 0 0 0 0
-0 0 0 0 0 -0 -0 -0 -0 0 -0 0 -0 0 0 0 0 0 0 0 0 0 0 0 0 0 0 0 0 0 0 0 0 0 0 0 0 0 0 0 0 0 0 0 0 0 0 0 0 0 0 0 0 0
0 0 0 0 -0 0 -0 0 0 0 0 0 0 0 0 0 0 0 0 0 0 0 0 0 0 0 0 0 0 0 0 0 0 0 0 0 0 0 0 0 0 0 0 0 0 0 0 0 0 0 0 0 0 0
0 0 -0 -0 -0 0 0 0 0 0 0 0 0 0 0 0 0 0 0 0 0 0 0 0 0 0 0 0 0 0 0 0 0 0 0 0 0 0 0 0 0 0 0 0 0 0 0 0 0 0 0 0 0 0
0 0 -0 -0 0 0 0 0 0 0 0 0 0 0 0 0 0 0 0 0 0 0 0 0 0 0 0 0 0 0 0 0 0 0 0 0 0 0 0 0 0 0 0 0 0 0 0 0 0 0 0 0 0 0
0 0 0 0 0 0 0 0 0 0 0 0 0 0 0 0 0 0 0 0 0 0 0 0 0 0 0 0 0 0 0 0 0 0 0 0 0 0 0 0 0 0 0 0 0 0 0 0 0 0 0 0 0 0
0 0 0 0 0 0 0 0 0 0 0 0 0 0 0 0 0 0 0 0 0 0 0 0 0 0 0 0 0 0 0 0 0 0 0 0 0 0 0 0 0 0 0 0 0 0 0 0 0 0 0 0 0 0
0 0 0 0 0 0 0 0 0 0 0 0 0 0 0 0 0 0 0 0 0 0 0 0 0 0 0 0 0 0 0 0 0 0 0 0 0 0 0 0 0 0 0 0 0 0 0 0 0 0 0 0 0 0
0 0 0 0 0 0 0 0 0 0 0 0 0 0 0 0 0 0 0 0 0 0 0 0 0 0 0 0 0 0 0 0 0 0 0 0 0 0 0 0 0 0 0 0 0 0 0 0 0 0 0 0 0 0
0 0 0 0 0 0 0 0 0 0 0 0 0 0 0 0 0 0 0 0 0 0 0 0 0 0 0 0 0 0 0 0 0 0 0 0 0 0 0 0 0 0 0 0 0 0 0 0 0 0 0 0 0 0
0 0 0 0 0 0 0 0 0 0 0 0 0 0 0 0 0 0 0 0 0 0 0 0 0 0 0 0 0 0 0 0 0 0 0 0 0 0 0 0 0 0 0 0 0 0 0 0 0 0 0 0 0 0
0 0 0 0 0 0 0 0 0 0 0 0 0 0 0 0 0 0 0 0 0 0 0 0 0 0 0 0 0 0 0 0 0 0 0 0 0 0 0 0 0 0 0 0 0 0 0 0 0 0 0 0 0 0
0 0 0 0 0 0 0 0 0 0 0 0 0 0 0 0 0 0 0 0 0 0 0 0 0 0 0 0 0 0 0 0 0 0 0 0 0 0 0 0 0 0 0 0 0 0 0 0 0 0 0 0 0 0
0 0 0 0 0 0 0 0 0 0 0 0 0 0 0 0 0 0 0 0 0 0 0 0 0 0 0 0 0 0 0 0 0 0 0 0 0 0 0 0 0 0 0 0 0 0 0 0 0 0 0 0 0 0
0 0 0 0 0 0 0 0 0 0 0 0 0 0 0 0 0 0 0 0 0 0 0 0 0 0 0 0 0 0 0 0 0 0 0 0 0 0 0 0 0 0 0 0 0 0 0 0 0 0 0 0 0 0
0 0 0 0 0 0 0 0 0 0 0 0 0 0 0 0 0 0 0 0 0 0 0 0 0 0 0 0 0 0 0 0 0 0 0 0 0 0 0 0 0 0 0 0 0 0 0 0 0 0 0 0 0 0
0 0 0 0 0 0 0 0 0 0 0 0 0 0 0 0 0 0 0 0 0 0 0 0 0 0 -0 -0 0 0 0 -0 -0 -0 0 0 0 0 0 0 0 0 0 0 0 0 0 0 0 0 0 0 0 0
0 0 0 0 0 0 0 0 0 0 0 0 0 0 0 0 0 0 0 0 0 0 0 0 0 -0 -0 -0 -0 -0 -0 -0 -0 -0 -0 -0 -0 -0 0 0 0 0 0 0 0 0 0 0 0 0 0 0 0 0
0 0 0 0 0 0 0 0 0 0 0 0 0 0 0 0 0 0 0 0 0 0 0 0 0 0 0 0 0 0 0 0 -0 -0 -0 -0 -0 -0 0 0 0 0 0 0 0 0 0 0 0 0 0 0 0 0
Wind_Speed_500mb
90 79 82 84 84 85 79 76 71 47 41 42 48 51 40 45 76 27 40 52 49 20 21 18 19 18 29 24 14 22 10 3 5 7 7 6 6 10 6 11 13 14 13 8 6 6 14 27 8 3 10 21 36 38
82 82 81 77 79 76 68 67 61 56 44 32 31 42 42 47 58 57 37 43 46 40 34 42 42 35 32 24 31 37 4 11 18 8 3 6 5 4 9 6 9 7 12 8 15 9 18 34 40 25 22 23 34 45
76 75 73 72 68 66 66 65 57 47 48 46 27 31 41 32 49 58 60 69 57 49 39 24 34 28 28 22 35 13 11 12 13 14 8 4 7 6 7 8 4 6 10 4 7 8 13 29 22 21 38 33 44 43
71 69 67 65 62 59 55 56 53 49 49 40 26 21 30 32 37 50 60 49 47 28 11 18 22 30 24 7 27 17 32 27 37 24 11 4 6 3 3 5 5 3 8 4 9 9 21 25 33 48 52 40 48 58
66 63 61 59 56 52 47 44 47 50 41 34 41 50 38 32 27 46 40 36 42 11 11 18 34 26 22 24 31 33 44 50 22 10 6 4 6 6 0 5 4 7 4 6 3 11 3 19 41 51 41 49 52 57
60 61 58 54 51 47 42 38 35 36 39 44 25 23 32 40 48 45 16 20 23 46 22 6 10 19 20 27 34 35 30 24 15 12 8 9 6 4 4 5 6 9 9 6 3 18 25 38 29 20 47 45 47 50
56 57 57 55 50 43 36 33 30 28 29 33 38 41 19 7 8 2 16 19 23 21 15 10 6 7 12 15 16 23 24 20 13 9 7 9 3 3 5 7 21 9 2 6 14 22 9 11 26 38 37 41 44 47
54 59 60 59 56 46 34 24 23 22 21 21 23 31 39 46 50 49 35 24 20 19 15 7 4 4 13 10 9 12 11 11 11 9 8 6 4 7 6 14 15 5 4 5 5 16 21 27 28 30 32 35 40 44
54 53 57 62 56 47 35 19 13 16 17 15 13 13 15 14 17 21 26 34 35 18 12 11 4 2 11 11 10 10 7 5 5 5 4 4 3 6 4 19 11 6 7 9 8 10 9 20 25 27 30 32 37 44
59 61 65 60 57 50 36 18 4 11 14 15 12 7 10 10 14 10 11 10 16 23 20 5 8 4 12 7 7 2 4 3 5 2 9 2 5 12 15 9 8 5 3 3 8 5 14 13 23 27 29 30 33 38
56 59 63 60 56 47 34 18 10 14 14 15 14 11 12 18 11 11 13 17 17 9 18 12 19 6 14 6 3 10 1 3 4 5 6 4 6 9 19 9 8 6 2 1 4 6 10 16 22 28 25 25 27 30
54 56 59 56 52 44 37 29 19 21 26 23 17 13 13 14 13 14 3 7 12 3 9 6 9 7 7 7 3 5 4 5 4 4 5 6 3 19 19 16 10 6 3 1 1 3 7 11 14 17 20 24 25 28
50 52 55 51 46 39 34 29 28 25 18 15 10 9 16 14 20 11 7 7 6 7 10 9 2 1 3 6 7 4 7 6 5 3 7 6 16 21 18 14 11 8 5 3 1 4 7 10 13 17 17 21 24 26
44 45 48 42 38 33 28 22 21 24 15 12 13 14 8 8 7 4 2 3 5 2 1 4 3 9 8 8 4 8 4 6 2 3 11 4 21 18 16 14 12 11 8 5 1 4 8 13 14 13 17 23 26 27
37 33 41 31 27 26 23 20 20 22 12 12 11 6 7 6 4 6 9 8 5 6 6 2 6 5 4 6 3 6 9 7 11 8 4 10 16 17 16 14 12 9 5 3 6 8 10 12 13 15 16 18 21 24
31 26 36 29 21 15 14 16 20 17 11 11 13 11 8 3 1 2 6 4 5 5 6 7 4 7 5 5 5 10 7 10 6 3 6 13 16 16 14 12 9 7 7 9 11 11 11 11 12 14 16 18 21 25
26 23 30 30 17 14 8 9 12 12 10 9 8 19 12 11 10 9 7 3 5 5 3 5 7 12 1 5 5 5 8 6 5 10 10 11 11 13 15 13 11 10 10 11 10 9 9 11 14 14 13 17 22 26
30 25 28 27 19 3 10 8 9 9 12 9 5 11 7 12 14 11 10 10 7 6 5 4 5 4 8 7 7 6 11 10 11 10 11 12 14 15 15 13 13 13 10 9 7 8 9 10 12 15 20 25 28 32
35 29 23 24 19 5 3 6 7 10 7 9 16 18 10 9 9 11 12 9 6 6 5 5 4 7 7 9 9 10 14 16 15 17 18 18 19 18 17 15 13 10 8 6 7 8 9 11 14 21 27 32 35 36
27 25 18 18 14 3 3 6 8 9 8 14 14 16 10 7 10 13 12 11 10 5 4 5 9 8 9 11 12 13 13 15 17 17 18 19 20 19 17 14 12 9 7 6 6 9 11 15 21 28 34 36 36 35
27 11 15 12 5 2 4 7 7 9 16 10 16 14 7 9 9 12 12 16 11 11 8 20 19 16 16 14 12 13 15 16 19 19 14 13 18 18 16 13 11 9 7 6 8 12 17 21 27 33 34 33 34 37
14 16 11 6 5 4 5 6 11 16 9 11 13 8 5 5 7 7 10 13 15 13 16 12 14 14 19 17 14 13 13 15 16 16 16 14 16 17 15 13 12 10 7 8 12 17 22 27 33 33 32 33 37 38
16 8 8 10 8 4 4 16 4 8 6 11 10 3 2 2 4 6 8 13 13 16 21 22 19 15 15 15 15 15 16 16 15 15 15 15 14 13 13 13 13 10 12 17 21 24 27 34 34 33 35 38 40 40
10 8 7 7 7 7 14 5 6 7 7 5 6 3 2 6 2 2 7 8 10 11 13 14 19 18 16 15 15 14 15 16 17 17 17 16 16 17 16 14 14 14 17 23 25 27 32 33 32 33 35 37 38 40
5 6 5 3 7 9 6 5 2 3 4 2 5 1 1 3 1 3 7 7 7 11 10 10 16 17 17 13 13 15 16 16 16 16 17 18 20 21 20 19 21 22 25 28 26 28 29 29 31 32 33 34 35 37
6 5 4 4 4 7 9 9 11 8 6 5 4 6 5 4 1 10 6 5 2 4 5 4 9 16 18 19 19 16 19 22 21 20 18 18 20 22 23 26 28 28 30 25 24 25 26 28 29 31 30 30 32 37
8 7 6 8 8 9 7 8 8 5 7 9 7 7 4 3 9 8 7 5 7 5 12 19 22 22 20 22 22 23 26 22 24 23 20 18 20 24 26 29 32 30 23 22 22 24 25 27 29 30 30 29 32 38
5 9 4 12 5 6 6 3 7 10 6 11 16 7 12 13 8 8 9 7 19 30 29 26 28 34 40 39 33 26 20 21 24 25 23 21 23 26 27 24 20 19 19 20 21 23 25 27 28 27 29 32 33 36
3 8 12 4 4 3 2 3 5 6 9 15 6 6 6 7 8 9 15 24 24 18 20 29 38 45 43 40 42 37 21 17 24 26 24 20 16 15 16 14 14 14 16 18 20 22 24 26 27 28 31 34 37 38
5 11 3 3 4 3 2 4 5 6 12 14 9 11 13 19 21 23 22 17 11 14 22 31 42 41 25 22 34 42 19 13 16 16 15 14 14 13 11 11 13 14 15 17 20 23 25 25 27 30 32 34 37 39
10 4 3 5 6 3 2 2 7 12 13 13 20 20 18 16 16 15 16 13 9 11 16 23 29 25 18 22 24 22 13 9 8 11 11 11 10 10 11 13 14 15 17 19 21 23 23 25 28 30 32 34 36 40
4 3 3 4 3 0 4 2 4 4 4 4 5 5 6 7 8 5 10 14 8 7 8 9 13 14 15 13 12 10 6 6 6 8 9 9 9 11 13 15 16 17 19 21 23 25 27 28 29 33 36 38 40 43
5 4 5 7 4 2 1 5 2 4 5 4 4 5 5 6 11 9 12 13 8 6 5 2 1 1 3 2 2 3 3 4 4 5 7 9 11 14 16 16 18 21 22 24 27 28 30 32 33 36 39 42 44 46
Wind_Direction_500mb
36 45 48 45 46 44 51 69 71 109 129 141 152 152 161 174 190 185 161 168 161 97 68 140 123 113 132 138 146 151 94 288 51 85 121 195 128 215 111 156 171 163 158 178 176 236 287 356 1 251 8 3 348 342
35 38 38 47 49 49 55 53 67 68 86 109 137 168 134 161 174 199 174 167 155 124 108 105 101 99 110 104 121 159 252 160 168 109 97 106 79 104 167 214 197 182 185 186 175 204 73 63 103 77 33 357 345 334
29 33 37 38 44 54 59 60 64 67 61 68 132 139 139 140 174 177 157 149 146 112 89 94 66 100 141 165 171 160 195 151 129 111 121 103 132 142 150 240 162 167 28 172 38 23 67 117 91 27 357 349 330 328
23 27 30 34 37 44 55 62 65 69 72 80 90 131 159 131 129 149 131 133 132 112 92 56 97 95 94 83 197 198 169 140 127 118 80 126 133 31 191 155 136 167 27 116 279 56 36 115 27 349 342 333 329 322
18 19 21 25 29 33 38 52 63 68 73 78 80 80 107 161 147 133 133 137 151 121 124 120 87 73 92 105 126 140 148 139 104 84 83 112 98 86 278 62 225 21 130 164 204 77 314 288 320 335 338 336 330 325
14 16 15 15 17 22 25 31 41 54 63 68 88 105 110 122 130 128 102 84 133 122 102 103 107 82 86 98 106 102 101 94 86 94 94 81 82 26 109 209 90 94 84 74 80 303 291 302 320 303 326 330 327 323
15 11 8 7 5 4 12 15 25 36 46 58 65 76 110 121 184 44 110 113 118 109 99 115 106 69 69 65 66 55 68 70 75 88 67 92 116 89 183 232 129 145 183 311 303 324 2 322 319 327 330 330 329 330
13 7 4 358 354 352 350 2 8 25 41 46 59 73 82 88 97 78 79 96 102 95 84 96 71 83 28 45 65 59 55 58 51 94 80 93 90 35 233 129 150 169 21 120 201 321 299 306 323 334 340 343 345 348
13 10 2 356 357 353 347 343 5 8 23 46 47 56 58 51 47 52 65 66 60 80 99 61 76 158 22 45 64 57 79 62 84 91 86 123 109 231 172 158 179 193 174 192 288 308 315 333 334 338 348 352 355 352
5 4 2 3 358 354 352 347 41 39 18 26 46 73 63 27 35 40 37 42 35 34 49 77 356 17 16 21 55 62 70 96 157 60 116 115 245 151 166 167 176 184 227 323 348 14 340 350 338 343 354 356 358 354
4 2 2 6 4 6 15 21 102 85 57 40 38 55 55 41 41 40 48 42 357 38 27 39 34 11 31 49 35 25 174 27 140 255 136 215 277 178 183 196 187 189 188 12 11 349 336 339 333 330 349 353 2 0
3 2 5 11 13 22 36 53 72 92 86 82 92 65 29 31 46 72 34 8 40 124 10 38 348 36 8 65 92 352 110 33 186 168 86 262 218 158 181 194 188 185 191 119 38 355 349 336 326 327 346 348 359 358
4 4 6 16 22 32 47 64 75 68 72 62 52 53 13 354 40 62 2 348 51 14 7 18 63 157 83 57 79 70 83 204 143 62 226 223 156 180 188 185 182 183 181 170 114 18 348 321 307 318 343 347 352 357
3 6 8 16 27 33 43 56 46 30 33 48 34 30 63 6 52 89 108 138 154 135 26 60 48 48 22 40 26 85 244 58 32 231 237 218 186 178 183 185 188 185 183 181 97 320 307 297 304 323 343 348 349 352
358 5 11 16 25 27 32 31 23 24 45 64 43 64 52 135 99 129 116 116 97 79 72 42 52 62 10 73 48 69 26 271 202 228 215 173 179 187 190 192 195 193 208 261 282 282 289 302 314 326 334 345 347 347
352 1 8 7 11 10 15 18 17 31 56 55 66 87 124 118 82 82 102 90 73 88 79 67 70 46 349 113 69 222 146 227 244 208 194 190 189 192 197 199 201 222 252 263 272 280 291 301 310 324 334 345 345 345
346 352 356 2 358 3 341 359 21 53 59 57 57 100 109 81 107 151 153 155 110 84 76 70 78 216 41 22 277 189 207 218 188 217 216 216 210 203 198 197 210 233 247 257 267 280 299 309 316 325 332 339 341 339
339 336 348 354 354 327 35 55 73 73 72 100 123 137 113 126 134 147 155 152 151 135 139 189 124 99 192 195 267 234 207 217 216 221 217 210 202 199 207 217 225 228 239 253 269 294 305 306 311 324 333 336 337 332
331 332 331 344 351 11 73 65 74 100 106 127 134 143 134 146 169 168 173 171 161 163 164 138 105 206 229 212 202 209 225 224 223 221 217 218 220 222 222 224 229 233 242 258 287 296 302 311 321 332 335 334 336 337
320 320 315 331 341 324 97 78 100 105 138 156 153 160 161 172 174 195 200 197 191 201 180 199 216 221 216 212 221 235 238 229 226 221 228 232 223 221 225 229 229 227 239 258 280 300 312 319 326 331 332 332 334 338
316 308 311 311 287 256 114 127 92 107 137 158 158 163 159 166 180 183 192 200 205 221 240 233 236 235 245 244 242 236 230 226 223 227 235 235 221 221 227 228 227 234 241 276 304 316 320 320 323 325 328 330 331 332
287 295 296 264 235 173 111 105 119 127 130 129 149 169 157 176 191 202 193 191 222 228 222 229 244 253 237 234 241 240 234 231 229 234 238 234 224 224 228 223 220 220 247 293 311 316 317 320 323 324 325 326 327 329
299 279 223 219 193 176 141 155 125 136 116 164 137 89 275 164 201 222 248 235 250 241 244 254 250 249 230 225 227 228 232 234 232 233 234 235 234 225 218 218 223 244 282 300 303 309 314 318 320 322 324 326 325 327
269 243 235 209 187 142 139 115 128 121 124 130 130 178 195 156 216 229 255 257 250 269 268 256 230 227 228 235 243 239 233 231 229 231 232 230 228 223 223 224 233 259 283 299 299 301 308 312 313 317 320 321 322 323
255 241 211 230 155 119 107 124 122 106 130 173 103 138 244 152 84 241 232 253 264 300 287 249 224 227 234 238 241 244 233 225 229 231 230 228 226 227 232 240 253 267 284 293 291 297 304 308 312 315 320 321 321 322
231 221 163 178 156 173 179 143 178 165 136 126 187 139 133 99 68 246 232 207 269 342 353 311 258 255 257 254 248 244 237 230 219 225 228 234 235 238 247 258 268 279 290 287 290 299 304 310 316 321 322 321 324 326
245 215 183 171 149 147 91 88 117 119 153 171 167 156 128 179 242 245 194 172 134 71 343 320 307 297 285 261 247 235 226 232 235 230 229 237 244 249 257 267 276 282 279 286 295 302 309 316 319 319 321 328 331 332
223 180 206 166 144 166 133 119 138 182 180 163 138 187 187 201 233 175 183 203 306 310 309 309 307 297 279 258 244 231 221 219 229 231 236 245 256 265 268 266 262 268 280 291 299 308 314 316 316 319 326 333 336 334
160 159 143 109 137 153 151 116 155 158 167 174 184 231 243 226 206 211 282 299 302 299 312 315 317 309 291 260 231 211 205 222 227 229 239 255 262 264 266 263 264 274 284 294 304 312 315 314 318 328 332 332 331 333
170 166 140 104 137 114 158 151 177 191 204 217 250 273 271 273 280 282 283 278 277 307 324 334 337 331 309 223 203 199 203 222 209 218 238 250 267 277 267 268 279 287 296 303 308 311 313 317 320 323 325 325 323 324
142 134 103 68 90 126 141 247 271 267 260 255 255 258 268 289 288 272 230 228 252 308 334 351 12 31 79 133 153 172 184 189 229 244 250 258 260 263 272 280 284 291 298 303 304 303 307 314 317 320 322 324 325 325
104 96 65 105 112 304 306 327 304 287 278 267 270 259 280 278 272 237 209 211 236 277 319 357 42 81 115 134 148 168 215 252 236 245 245 244 253 265 276 282 288 295 302 304 304 304 306 310 314 318 321 324 326 326
99 101 97 112 110 124 292 329 335 307 265 279 279 285 264 263 254 221 204 200 219 260 263 277 350 101 116 143 189 199 225 267 252 249 254 266 273 278 281 287 292 296 301 304 305 307 311 314 318 321 322 323 324 325
Wind_Speed_850mb
90 79 82 84 84 85 79 76 71 47 41 42 48 51 40 45 76 27 40 52 49 20 21 18 19 18 29 24 14 22 10 3 5 7 7 6 6 10 6 11 13 14 13 8 6 6 14 27 8 3 10 21 36 38
82 82 81 77 79 76 68 67 61 56 44 32 31 42 42 47 58 57 37 43 46 40 34 42 42 35 32 24 31 37 4 11 18 8 3 6 5 4 9 6 9 7 12 8 15 9 18 34 40 25 22 23 34 45
76 75 73 72 68 66 66 65 57 47 48 46 27 31 41 32 49 58 60 69 57 49 39 24 34 28 28 22 35 13 11 12 13 14 8 4 7 6 7 8 4 6 10 4 7 8 13 29 22 21 38 33 44 43
71 69 67 65 62 59 55 56 53 49 49 40 26 21 30 32 37 50 60 49 47 28 11 18 22 30 24 7 27 17 32 27 37 24 11 4 6 3 3 5 5 3 8 4 9 9 21 25 33 48 52 40 48 58
66 63 61 59 56 52 47 44 47 50 41 34 41 50 38 32 27 46 40 36 42 11 11 18 34 26 22 24 31 33 44 50 22 10 6 4 6 6 0 5 4 7 4 6 3 11 3 19 41 51 41 49 52 57
60 61 58 54 51 47 42 38 35 36 39 44 25 23 32 40 48 45 16 20 23 46 22 6 10 19 20 27 34 35 30 24 15 12 8 9 6 4 4 5 6 9 9 6 3 18 25 38 29 20 47 45 47 50
56 57 57 55 50 43 36 33 30 28 29 33 38 41 19 7 8 2 16 19 23 21 15 10 6 7 12 15 16 23 24 20 13 9 7 9 3 3 5 7 21 9 2 6 14 22 9 11 26 38 37 41 44 47
54 59 60 59 56 46 34 24 23 22 21 21 23 31 39 46 50 49 35 24 20 19 15 7 4 4 13 10 9 12 11 11 11 9 8 6 4 7 6 14 15 5 4 5 5 16 21 27 28 30 32 35 40 44
54 53 57 62 56 47 35 19 13 16 17 15 13 13 15 14 17 21 26 34 35 18 12 11 4 2 11 11 10 10 7 5 5 5 4 4 3 6 4 19 11 6 7 9 8 10 9 20 25 27 30 32 37 44
59 61 65 60 57 50 36 18 4 11 14 15 12 7 10 10 14 10 11 10 16 23 20 5 8 4 12 7 7 2 4 3 5 2 9 2 5 12 15 9 8 5 3 3 8 5 14 13 23 27 29 30 33 38
56 59 63 60 56 47 34 18 10 14 14 15 14 11 12 18 11 11 13 17 17 9 18 12 19 6 14 6 3 10 1 3 4 5 6 4 6 9 19 9 8 6 2 1 4 6 10 16 22 28 25 25 27 30
54 56 59 56 52 44 37 29 19 21 26 23 17 13 13 14 13 14 3 7 12 3 9 6 9 7 7 7 3 5 4 5 4 4 5 6 3 19 19 16 10 6 3 1 1 3 7 11 14 17 20 24 25 28
50 52 55 51 46 39 34 29 28 25 18 15 10 9 16 14 20 11 7 7 6 7 10 9 2 1 3 6 7 4 7 6 5 3 7 6 16 21 18 14 11 8 5 3 1 4 7 10 13 17 17 21 24 26
44 45 48 42 38 33 28 22 21 24 15 12 13 14 8 8 7 4 2 3 5 2 1 4 3 9 8 8 4 8 4 6 2 3 11 4 21 18 16 14 12 11 8 5 1 4 8 13 14 13 17 23 26 27
37 33 41 31 27 26 23 20 20 22 12 12 11 6 7 6 4 6 9 8 5 6 6 2 6 5 4 6 3 6 9 7 11 8 4 10 16 17 16 14 12 9 5 3 6 8 10 12 13 15 16 18 21 24
31 26 36 29 21 15 14 16 20 17 11 11 13 11 8 3 1 2 6 4 5 5 6 7 4 7 5 5 5 10 7 10 6 3 6 13 16 16 14 12 9 7 7 9 11 11 11 11 12 14 16 18 21 25
26 23 30 30 17 14 8 9 12 12 10 9 8 19 12 11 10 9 7 3 5 5 3 5 7 12 1 5 5 5 8 6 5 10 10 11 11 13 15 13 11 10 10 11 10 9 9 11 14 14 13 17 22 26
30 25 28 27 19 3 10 8 9 9 12 9 5 11 7 12 14 11 10 10 7 6 5 4 5 4 8 7 7 6 11 10 11 10 11 12 14 15 15 13 13 13 10 9 7 8 9 10 12 15 20 25 28 32
35 29 23 24 19 5 3 6 7 10 7 9 16 18 10 9 9 11 12 9 6 6 5 5 4 7 7 9 9 10 14 16 15 17 18 18 19 18 17 15 13 10 8 6 7 8 9 11 14 21 27 32 35 36
27 25 18 18 14 3 3 6 8 9 8 14 14 16 10 7 10 13 12 11 10 5 4 5 9 8 9 11 12 13 13 15 17 17 18 19 20 19 17 14 12 9 7 6 6 9 11 15 21 28 34 36 36 35
27 11 15 12 5 2 4 7 7 9 16 10 16 14 7 9 9 12 12 16 11 11 8 20 19 16 16 14 12 13 15 16 19 19 14 13 18 18 16 13 11 9 7 6 8 12 17 21 27 33 34 33 34 37
14 16 11 6 5 4 5 6 11 16 9 11 13 8 5 5 7 7 10 13 15 13 16 12 14 14 19 17 14 13 13 15 16 16 16 14 16 17 15 13 12 10 7 8 12 17 22 27 33 33 32 33 37 38
16 8 8 10 8 4 4 16 4 8 6 11 10 3 2 2 4 6 8 13 13 16 21 22 19 15 15 15 15 15 16 16 15 15 15 15 14 13 13 13 13 10 12 17 21 24 27 34 34 33 35 38 40 40
10 8 7 7 7 7 14 5 6 7 7 5 6 3 2 6 2 2 7 8 10 11 13 14 19 18 16 15 15 14 15 16 17 17 17 16 16 17 16 14 14 14 17 23 25 27 32 33 32 33 35 37 38 40
5 6 5 3 7 9 6 5 2 3 4 2 5 1 1 3 1 3 7 7 7 11 10 10 16 17 17 13 13 15 16 16 16 16 17 18 20 21 20 19 21 22 25 28 26 28 29 29 31 32 33 34 35 37
6 5 4 4 4 7 9 9 11 8 6 5 4 6 5 4 1 10 6 5 2 4 5 4 9 16 18 19 19 16 19 22 21 20 18 18 20 22 23 26 28 28 30 25 24 25 26 28 29 31 30 30 32 37
8 7 6 8 8 9 7 8 8 5 7 9 7 7 4 3 9 8 7 5 7 5 12 19 22 22 20 22 22 23 26 22 24 23 20 18 20 24 26 29 32 30 23 22 22 24 25 27 29 30 30 29 32 38
5 9 4 12 5 6 6 3 7 10 6 11 16 7 12 13 8 8 9 7 19 30 29 26 28 34 40 39 33 26 20 21 24 25 23 21 23 26 27 24 20 19 19 20 21 23 25 27 28 27 29 32 33 36
3 8 12 4 4 3 2 3 5 6 9 15 6 6 6 7 8 9 15 24 24 18 20 29 38 45 43 40 42 37 21 17 24 26 24 20 16 15 16 14 14 14 16 18 20 22 24 26 27 28 31 34 37 38
5 11 3 3 4 3 2 4 5 6 12 14 9 11 13 19 21 23 22 17 11 14 22 31 42 41 25 22 34 42 19 13 16 16 15 14 14 13 11 11 13 14 15 17 20 23 25 25 27 30 32 34 37 39
10 4 3 5 6 3 2 2 7 12 13 13 20 20 18 16 16 15 16 13 9 11 16 23 29 25 18 22 24 22 13 9 8 11 11 11 10 10 11 13 14 15 17 19 21 23 23 25 28 30 32 34 36 40
4 3 3 4 3 0 4 2 4 4 4 4 5 5 6 7 8 5 10 14 8 7 8 9 13 14 15 13 12 10 6 6 6 8 9 9 9 11 13 15 16 17 19 21 23 25 27 28 29 33 36 38 40 43
5 4 5 7 4 2 1 5 2 4 5 4 4 5 5 6 11 9 12 13 8 6 5 2 1 1 3 2 2 3 3 4 4 5 7 9 11 14 16 16 18 21 22 24 27 28 30 32 33 36 39 42 44 46
Wind_Direction_850mb
36 45 48 45 46 44 51 69 71 109 129 141 152 152 161 174 190 185 161 168 161 97 68 140 123 113 132 138 146 151 94 288 51 85 121 195 128 215 111 156 171 163 158 178 176 236 287 356 1 251 8 3 348 342
35 38 38 47 49 49 55 53 67 68 86 109 137 168 134 161 174 199 174 167 155 124 108 105 101 99 110 104 121 159 252 160 168 109 97 106 79 104 167 214 197 182 185 186 175 204 73 63 103 77 33 357 345 334
29 33 37 38 44 54 59 60 64 67 61 68 132 139 139 140 174 177 157 149 146 112 89 94 66 100 141 165 171 160 195 151 129 111 121 103 132 142 150 240 162 167 28 172 38 23 67 117 91 27 357 349 330 328
23 27 30 34 37 44 55 62 65 69 72 80 90 131 159 131 129 149 131 133 132 112 92 56 97 95 94 83 197 198 169 140 127 118 80 126 133 31 191 155 136 167 27 116 279 56 36 115 27 349 342 333 329 322
18 19 21 25 29 33 38 52 63 68 73 78 80 80 107 161 147 133 133 137 151 121 124 120 87 73 92 105 126 140 148 139 104 84 83 112 98 86 278 62 225 21 130 164 204 77 314 288 320 335 338 336 330 325
14 16 15 15 17 22 25 31 41 54 63 68 88 105 110 122 130 128 102 84 133 122 102 103 107 82 86 98 106 102 101 94 86 94 94 81 82 26 109 209 90 94 84 74 80 303 291 302 320 303 326 330 327 323
15 11 8 7 5 4 12 15 25 36 46 58 65 76 110 121 184 44 110 113 118 109 99 115 106 69 69 65 66 55 68 70 75 88 67 92 116 89 183 232 129 145 183 311 303 324 2 322 319 327 330 330 329 330
13 7 4 358 354 352 350 2 8 25 41 46 59 73 82 88 97 78 79 96 102 95 84 96 71 83 28 45 65 59 55 58 51 94 80 93 90 35 233 129 150 169 21 120 201 321 299 306 323 334 340 343 345 348
13 10 2 356 357 353 347 343 5 8 23 46 47 56 58 51 47 52 65 66 60 80 99 61 76 158 22 45 64 57 79 62 84 91 86 123 109 231 172 158 179 193 174 192 288 308 315 333 334 338 348 352 355 352
5 4 2 3 358 354 352 347 41 39 18 26 46 73 63 27 35 40 37 42 35 34 49 77 356 17 16 21 55 62 70 96 157 60 116 115 245 151 166 167 176 184 227 323 348 14 340 350 338 343 354 356 358 354
4 2 2 6 4 6 15 21 102 85 57 40 38 55 55 41 41 40 48 42 357 38 27 39 34 11 31 49 35 25 174 27 140 255 136 215 277 178 183 196 187 189 188 12 11 349 336 339 333 330 349 353 2 0
3 2 5 11 13 22 36 53 72 92 86 82 92 65 29 31 46 72 34 8 40 124 10 38 348 36 8 65 92 352 110 33 186 168 86 262 218 158 181 194 188 185 191 119 38 355 349 336 326 327 346 348 359 358
4 4 6 16 22 32 47 64 75 68 72 62 52 53 13 354 40 62 2 348 51 14 7 18 63 157 83 57 79 70 83 204 143 62 226 223 156 180 188 185 182 183 181 170 114 18 348 321 307 318 343 347 352 357
3 6 8 16 27 33 43 56 46 30 33 48 34 30 63 6 52 89 108 138 154 135 26 60 48 48 22 40 26 85 244 58 32 231 237 218 186 178 183 185 188 185 183 181 97 320 307 297 304 323 343 348 349 352
358 5 11 16 25 27 32 31 23 24 45 64 43 64 52 135 99 129 116 116 97 79 72 42 52 62 10 73 48 69 26 271 202 228 215 173 179 187 190 192 195 193 208 261 282 282 289 302 314 326 334 345 347 347
352 1 8 7 11 10 15 18 17 31 56 55 66 87 124 118 82 82 102 90 73 88 79 67 70 46 349 113 69 222 146 227 244 208 194 190 189 192 197 199 201 222 252 263 272 280 291 301 310 324 334 345 345 345
346 352 356 2 358 3 341 359 21 53 59 57 57 100 109 81 107 151 153 155 110 84 76 70 78 216 41 22 277 189 207 218 188 217 216 216 210 203 198 197 210 233 247 257 267 280 299 309 316 325 332 339 341 339
339 336 348 354 354 327 35 55 73 73 72 100 123 137 113 126 134 147 155 152 151 135 139 189 124 99 192 195 267 234 207 217 216 221 217 210 202 199 207 217 225 228 239 253 269 294 305 306 311 324 333 336 337 332
331 332 331 344 351 11 73 65 74 100 106 127 134 143 134 146 169 168 173 171 161 163 164 138 105 206 229 212 202 209 225 224 223 221 217 218 220 222 222 224 229 233 242 258 287 296 302 311 321 332 335 334 336 337
320 320 315 331 341 324 97 78 100 105 138 156 153 160 161 172 174 195 200 197 191 201 180 199 216 221 216 212 221 235 238 229 226 221 228 232 223 221 225 229 229 227 239 258 280 300 312 319 326 331 332 332 334 338
316 308 311 311 287 256 114 127 92 107 137 158 158 163 159 166 180 183 192 200 205 221 240 233 236 235 245 244 242 236 230 226 223 227 235 235 221 221 227 228 227 234 241 276 304 316 320 320 323 325 328 330 331 332
287 295 296 264 235 173 111 105 119 127 130 129 149 169 157 176 191 202 193 191 222 228 222 229 244 253 237 234 241 240 234 231 229 234 238 234 224 224 228 223 220 220 247 293 311 316 317 320 323 324 325 326 327 329
299 279 223 219 193 176 141 155 125 136 116 164 137 89 275 164 201 222 248 235 250 241 244 254 250 249 230 225 227 228 232 234 232 233 234 235 234 225 218 218 223 244 282 300 303 309 314 318 320 322 324 326 325 327
269 243 235 209 187 142 139 115 128 121 124 130 130 178 195 156 216 229 255 257 250 269 268 256 230 227 228 235 243 239 233 231 229 231 232 230 228 223 223 224 233 259 283 299 299 301 308 312 313 317 320 321 322 323
255 241 211 230 155 119 107 124 122 106 130 173 103 138 244 152 84 241 232 253 264 300 287 249 224 227 234 238 241 244 233 225 229 231 230 228 226 227 232 240 253 267 284 293 291 297 304 308 312 315 320 321 321 322
231 221 163 178 156 173 179 143 178 165 136 126 187 139 133 99 68 246 232 207 269 342 353 311 258 255 257 254 248 244 237 230 219 225 228 234 235 238 247 258 268 279 290 287 290 299 304 310 316 321 322 321 324 326
245 215 183 171 149 147 91 88 117 119 153 171 167 156 128 179 242 245 194 172 134 71 343 320 307 297 285 261 247 235 226 232 235 230 229 237 244 249 257 267 276 282 279 286 295 302 309 316 319 319 321 328 331 332
223 180 206 166 144 166 133 119 138 182 180 163 138 187 187 201 233 175 183 203 306 310 309 309 307 297 279 258 244 231 221 219 229 231 236 245 256 265 268 266 262 268 280 291 299 308 314 316 316 319 326 333 336 334
160 159 143 109 137 153 151 116 155 158 167 174 184 231 243 226 206 211 282 299 302 299 312 315 317 309 291 260 231 211 205 222 227 229 239 255 262 264 266 263 264 274 284 294 304 312 315 314 318 328 332 332 331 333
170 166 140 104 137 114 158 151 177 191 204 217 250 273 271 273 280 282 283 278 277 307 324 334 337 331 309 223 203 199 203 222 209 218 238 250 267 277 267 268 279 287 296 303 308 311 313 317 320 323 325 325 323 324
142 134 103 68 90 126 141 247 271 267 260 255 255 258 268 289 288 272 230 228 252 308 334 351 12 31 79 133 153 172 184 189 229 244 250 258 260 263 272 280 284 291 298 303 304 303 307 314 317 320 322 324 325 325
104 96 65 105 112 304 306 327 304 287 278 267 270 259 280 278 272 237 209 211 236 277 319 357 42 81 115 134 148 168 215 252 236 245 245 244 253 265 276 282 288 295 302 304 304 304 306 310 314 318 321 324 326 326
99 101 97 112 110 124 292 329 335 307 265 279 279 285 264 263 254 221 204 200 219 260 263 277 350 101 116 143 189 199 225 267 252 249 254 266 273 278 281 287 292 296 301 304 305 307 311 314 318 321 322 323 324 325